BASE

EGKB 222120Z 36009KT CAVOK 11/09 Q1020

TAF EGKB 181658Z 1818/1820 26007KT 9999 BKN035= TAF EGLC 181658Z 1818/1821 26010KT 9999 BKN040

Hangar Services – Aircraft Sales
fly@1aviation.co.uk
Biggin Hill – EGKB
51°19’14.2″N 0°02’05.7″E
NOTAM AIP – Plates
METAR TAF Weather
1aviation.co.uk
Hangar 170 – Churchill Way
Biggin Hill Airport TN16 3BN
Google Maps

CL605 in Hanger in Biggin Hill

pan1

viewtocanarywharf

1alogo